Orbital Elements at Epoch 2459200.5 (2020-Dec-17.0) TDB
Reference: JPL 13 (heliocentric ecliptic J2000)
Element | Value | Uncertainty (1-sigma) | Units |
e | .1361052491325123 | 4.7754e-08 | |
a | 3.11798034015044 | 2.9349e-08 | au |
q | 2.693606849163989 | 1.5155e-07 | au |
i | 10.30901074582327 | 6.956e-06 | deg |
node | .7513133604447872 | 2.3264e-05 | deg |
peri | 71.20922984024098 | 3.6565e-05 | deg |
M | 342.45580353242 | 2.5007e-05 | deg |
tp | 2459298.503021832028 (2021-Mar-25.00302183) | 0.00013936 | TDB |
period | 2010.983399822612 5.51 | 2.8394e-05 7.774e-08 | d yr |
n | .1790168929448922 | 2.5276e-09 | deg/d |
Q | 3.542353831136892 | 3.3344e-08 | au |
|
| | Orbit Determination Parameters
Additional Information
|